GW3780 Weather Reports


Display with metric or nautical units.
time (UTC)temp
F
wind
direction
speed
MPH
gust
MPH
rain 1hr
in
rain 24hr
in
rain mn
in
humidity
%
barometer
mb
20260903092938 75 333 0.0 0.0 0.00 0.00 0.00 99 1018.4
20260903092437 75 331 1.0 1.0 0.00 0.00 0.00 99 1018.2
20260903091936 75 339 0.0 0.0 0.00 0.00 0.00 99 1018.2
20260903091435 75 339 0.0 0.0 0.00 0.00 0.00 99 1018.1
20260903090930 75 283 0.0 1.0 0.00 0.00 0.00 99 1018.1
20260903090426 75 337 0.0 2.0 0.00 0.00 0.00 99 1018.0
20260903085924 75 320 1.0 1.0 0.00 0.00 0.00 99 1018.0
20260903085423 75 331 0.0 1.0 0.00 0.00 0.00 99 1017.9
20260903084922 75 308 1.0 1.0 0.00 0.00 0.00 99 1017.7
20260903084421 75 298 0.0 0.0 0.00 0.00 0.00 99 1017.8
20260903083916 75 350 0.0 2.0 0.00 0.00 0.00 99 1017.6
20260903083413 75 326 0.0 1.0 0.00 0.00 0.00 99 1017.7
20260903082911 75 315 0.0 1.0 0.00 0.00 0.00 99 1017.6
20260903082407 75 333 0.0 1.0 0.00 0.00 0.00 99 1017.5
20260903081902 75 333 0.0 0.0 0.00 0.00 0.00 99 1017.6
20260903081356 75 333 0.0 1.0 0.00 0.00 0.00 99 1017.7
20260903080853 75 297 0.0 0.0 0.00 0.00 0.00 99 1017.9
20260903080349 75 315 0.0 0.0 0.00 0.00 0.00 99 1017.8
20260903075844 75 297 0.0 1.0 0.00 0.00 0.00 99 1017.9
20260903075339 75 315 0.0 0.0 0.00 0.00 0.00 99 1017.9
20260903074839 75 336 0.0 1.0 0.00 0.00 0.00 99 1018.0
20260903074333 75 333 0.0 0.0 0.00 0.00 0.00 99 1018.1
20260903073829 75 329 0.0 1.0 0.00 0.00 0.00 99 1018.2
20260903073324 75 322 0.0 0.0 0.00 0.00 0.00 99 1018.1
20260903072820 75 322 0.0 0.0 0.00 0.00 0.00 99 1018.0
20260903072316 76 331 0.0 1.0 0.00 0.00 0.00 99 1018.1
20260903071812 76 299 0.0 0.0 0.00 0.00 0.00 99 1018.2
20260903071308 76 297 0.0 0.0 0.00 0.00 0.00 99 1017.9
20260903070802 76 298 0.0 1.0 0.00 0.00 0.00 99 1017.9
20260903070258 76 283 0.0 0.0 0.00 0.00 0.00 99 1018.2
20260903065753 76 309 0.0 1.0 0.00 0.00 0.00 99 1018.2
20260903065252 76 308 1.0 2.0 0.00 0.00 0.00 99 1018.3
20260903064751 76 293 0.0 1.0 0.00 0.00 0.00 99 1018.3
20260903064247 75 316 0.0 0.0 0.00 0.00 0.00 99 1018.4
20260903063743 76 321 0.0 1.0 0.00 0.00 0.00 99 1018.3
20260903063237 76 309 0.0 1.0 0.00 0.00 0.00 99 1018.3
20260903062734 76 322 0.0 0.0 0.00 0.00 0.00 99 1018.3
20260903062232 76 315 0.0 0.0 0.00 0.00 0.00 99 1018.3
20260903061729 76 326 0.0 0.0 0.00 0.00 0.00 99 1018.5
20260903061228 76 321 0.0 1.0 0.00 0.00 0.00 99 1018.3
20260903060724 76 309 0.0 1.0 0.00 0.00 0.00 99 1018.4
20260903060224 76 315 0.0 0.0 0.00 0.00 0.00 99 1018.2
20260903055721 76 315 0.0 0.0 0.00 0.00 0.00 98 1018.1
20260903055220 76 310 0.0 1.0 0.00 0.00 0.00 98 1018.5
20260903054715 76 312 0.0 1.0 0.00 0.00 0.00 98 1018.5
20260903054210 76 301 0.0 1.0 0.00 0.00 0.00 98 1018.6
20260903053707 77 297 0.0 0.0 0.00 0.00 0.00 98 1018.5
20260903053201 77 284 0.0 1.0 0.00 0.00 0.00 98 1018.7
20260903052657 77 343 1.0 2.0 0.00 0.00 0.00 97 1018.9
20260903052153 77 315 0.0 2.0 0.00 0.00 0.00 97 1018.8
20260903051647 77 319 1.0 2.0 0.00 0.00 0.00 97 1018.9
20260903051143 77 295 0.0 1.0 0.00 0.00 0.00 97 1018.8
20260903050638 77 299 2.0 3.0 0.00 0.00 0.00 96 1018.9
20260903050132 77 320 1.0 1.0 0.00 0.00 0.00 96 1018.8
20260903045632 77 297 0.0 1.0 0.00 0.00 0.00 96 1019.0
20260903045129 77 296 0.0 1.0 0.00 0.00 0.00 96 1019.0
20260903044624 77 306 1.0 1.0 0.00 0.00 0.00 96 1018.7
20260903044119 77 315 0.0 1.0 0.00 0.00 0.00 95 1018.7
20260903043616 78 316 1.0 2.0 0.00 0.00 0.00 95 1018.8
20260903043115 78 311 0.0 1.0 0.00 0.00 0.00 95 1018.8
20260903042615 78 343 0.0 1.0 0.00 0.00 0.00 94 1018.7
20260903042110 78 214 0.0 2.0 0.00 0.00 0.00 94 1019.0
20260903041607 78 347 1.0 2.0 0.00 0.00 0.00 94 1018.6
20260903041102 78 321 0.0 1.0 0.00 0.00 0.00 94 1018.5
20260903040601 78 282 0.0 0.0 0.00 0.00 0.00 94 1018.5
20260903040058 78 352 0.0 1.0 0.00 0.00 0.00 94 1018.5
20260903035553 78 309 0.0 1.0 0.00 0.00 0.00 94 1018.4
20260903035048 78 0 0.0 0.0 0.00 0.00 0.00 95 1018.5
20260903034543 78 235 0.0 1.0 0.00 0.00 0.00 95 1018.7
20260903034039 78 322 1.0 2.0 0.00 0.00 0.00 95 1018.2
20260903033533 78 325 1.0 2.0 0.00 0.00 0.00 95 1018.3
20260903033029 79 341 1.0 1.0 0.00 0.00 0.00 94 1018.3
20260903032523 79 329 0.0 1.0 0.00 0.00 0.00 94 1018.1
20260903032019 79 322 0.0 0.0 0.00 0.00 0.00 94 1018.0
20260903031518 79 230 0.0 0.0 0.00 0.00 0.00 94 1018.2
20260903031014 79 329 0.0 1.0 0.00 0.00 0.00 94 1018.2
20260903030509 79 316 0.0 1.0 0.00 0.00 0.00 94 1018.4
20260903030006 79 322 1.0 2.0 0.00 0.00 0.00 94 1018.2
20260903025501 79 322 1.0 1.0 0.00 0.00 0.00 94 1018.2
20260903024956 79 329 1.0 2.0 0.00 0.00 0.00 94 1018.3
20260903024455 79 323 1.0 1.0 0.00 0.00 0.00 94 1018.1
20260903023950 79 324 0.0 1.0 0.00 0.00 0.00 94 1018.3
20260903023445 79 319 1.0 1.0 0.00 0.00 0.00 93 1018.3
20260903022941 79 322 0.0 1.0 0.00 0.00 0.00 93 1018.4
20260903022440 79 308 1.0 2.0 0.00 0.00 0.00 93 1018.5
20260903021938 79 326 0.0 1.0 0.00 0.00 0.00 93 1018.6
20260903021434 80 322 0.0 1.0 0.00 0.00 0.00 92 1018.6
20260903020929 80 309 0.0 2.0 0.00 0.00 0.00 92 1018.9
20260903020424 80 326 0.0 2.0 0.00 0.00 0.00 92 1018.7
20260903015919 80 301 0.0 1.0 0.00 0.00 0.00 92 1019.0
20260903015415 80 292 1.0 2.0 0.00 0.00 0.00 92 1018.9
20260903014909 80 296 1.0 2.0 0.00 0.00 0.00 92 1018.9
20260903014408 80 333 0.0 1.0 0.00 0.00 0.00 91 1018.9
20260903013904 80 294 1.0 1.0 0.00 0.00 0.00 91 1018.9
20260903013403 80 297 2.0 2.0 0.00 0.00 0.00 91 1018.8
20260903012902 80 306 1.0 2.0 0.00 0.00 0.00 91 1019.0
20260903012357 81 306 1.0 2.0 0.00 0.00 0.00 90 1018.9
20260903011855 81 306 1.0 1.0 0.00 0.00 0.00 90 1018.8
20260903011350 81 303 0.0 1.0 0.00 0.00 0.00 90 1018.9
20260903010846 81 311 1.0 2.0 0.00 0.00 0.00 90 1018.9
20260903010341 81 321 2.0 2.0 0.00 0.00 0.00 89 1018.8
20260903005839 81 313 0.0 1.0 0.00 0.00 0.00 88 1018.9
20260903005335 81 316 1.0 1.0 0.00 0.00 0.00 88 1018.8
20260903004831 82 297 0.0 1.0 0.00 0.00 0.00 88 1018.7
20260903004326 82 310 0.0 2.0 0.00 0.00 0.00 88 1018.7
20260903003821 82 323 2.0 2.0 0.00 0.00 0.00 87 1018.5
20260903003316 82 301 1.0 2.0 0.00 0.00 0.00 87 1018.4
20260903002816 82 311 0.0 2.0 0.00 0.00 0.00 87 1018.5
20260903002315 82 309 0.0 2.0 0.00 0.00 0.00 86 1018.2
20260903001810 82 352 0.0 1.0 0.00 0.00 0.00 86 1018.4
20260903001305 82 299 0.0 2.0 0.00 0.00 0.00 86 1018.1
20260903000800 82 333 0.0 1.0 0.00 0.00 0.00 85 1018.3
20260903000256 83 325 0.0 1.0 0.00 0.00 0.00 84 1018.4
20260902235753 83 322 1.0 1.0 0.00 0.00 0.00 84 1018.7
20260902235248 83 330 1.0 2.0 0.00 0.00 0.00 84 1018.4
20260902234748 83 294 2.0 2.0 0.00 0.00 0.00 84 1018.2
20260902234242 84 326 2.0 2.0 0.00 0.00 0.00 84 1018.2
20260902233742 84 321 0.0 3.0 0.00 0.00 0.00 83 1018.4
20260902233236 84 325 1.0 1.0 0.00 0.00 0.00 84 1018.3
20260902232734 84 135 0.0 2.0 0.00 0.00 0.00 83 1018.3
20260902232229 84 289 2.0 3.0 0.00 0.00 0.00 83 1018.5
20260902231728 84 117 0.0 0.0 0.00 0.00 0.00 83 1018.7
20260902231224 84 304 0.0 1.0 0.00 0.00 0.00 84 1019.0
20260902230719 84 292 2.0 2.0 0.00 0.00 0.00 84 1019.1
20260902230218 84 318 1.0 2.0 0.00 0.00 0.00 84 1019.0
20260902225712 84 265 2.0 3.0 0.00 0.00 0.00 84 1018.7
20260902225207 84 306 0.0 2.0 0.00 0.00 0.00 84 1018.7
20260902224705 84 226 0.0 2.0 0.00 0.00 0.00 84 1018.3
20260902224200 84 357 1.0 3.0 0.00 0.00 0.00 84 1018.3
20260902223657 84 327 1.0 2.0 0.00 0.00 0.00 83 1018.6
20260902223156 84 315 0.0 1.0 0.00 0.00 0.00 83 1018.8
20260902222649 84 147 0.0 0.0 0.00 0.00 0.00 82 1019.2
20260902222148 84 156 0.0 1.0 0.00 0.00 0.00 81 1019.2
20260902221643 84 154 0.0 3.0 0.00 0.00 0.00 80 1019.3
20260902221138 84 321 2.0 4.0 0.00 0.00 0.00 80 1019.5
20260902220634 84 284 0.0 2.0 0.00 0.00 0.00 80 1018.8
20260902220133 84 340 2.0 4.0 0.00 0.00 0.00 79 1018.7
20260902215629 84 315 1.0 1.0 0.00 0.00 0.00 79 1018.7
20260902215125 85 322 0.0 3.0 0.00 0.00 0.00 78 1018.8
20260902214620 85 350 0.0 3.0 0.00 0.00 0.00 77 1018.9
20260902214118 85 284 0.0 2.0 0.00 0.00 0.00 77 1018.9
20260902213615 85 289 2.0 4.0 0.00 0.00 0.00 76 1019.1
20260902213113 86 299 2.0 4.0 0.00 0.00 0.00 75 1018.6
20260902212609 87 103 2.0 3.0 0.00 0.00 0.00 73 1018.5
20260902212105 87 259 0.0 3.0 0.00 0.00 0.00 71 1018.7
20260902211601 88 332 1.0 3.0 0.00 0.00 0.00 71 1019.1
20260902211056 88 329 1.0 4.0 0.00 0.00 0.00 70 1018.8
20260902210556 89 353 3.0 6.0 0.00 0.00 0.00 70 1018.9
20260902210055 89 290 2.0 3.0 0.00 0.00 0.00 72 1018.7
20260902205555 88 180 0.0 5.0 0.00 0.00 0.00 73 1018.5
20260902205051 89 313 2.0 8.0 0.00 0.00 0.00 72 1018.7
20260902204545 90 3 4.0 4.0 0.00 0.00 0.00 70 1018.9
20260902204039 92 232 3.0 8.0 0.00 0.00 0.00 67 1018.8
20260902203534 93 285 1.0 3.0 0.00 0.00 0.00 64 1018.7
20260902203034 93 291 3.0 4.0 0.00 0.00 0.00 64 1018.8
20260902202530 93 76 0.0 3.0 0.00 0.00 0.00 64 1018.5
20260902202026 93 320 2.0 5.0 0.00 0.00 0.00 64 1018.6
20260902201521 93 306 2.0 3.0 0.00 0.00 0.00 62 1018.6
20260902201015 93 343 1.0 3.0 0.00 0.00 0.00 62 1018.9
20260902200511 92 293 2.0 3.0 0.00 0.00 0.00 63 1018.8
20260902200007 92 313 2.0 3.0 0.00 0.00 0.00 63 1018.7
20260902195502 93 301 1.0 5.0 0.00 0.00 0.00 62 1018.8
20260902195000 93 316 2.0 4.0 0.00 0.00 0.00 61 1018.7
20260902194455 94 288 1.0 4.0 0.00 0.00 0.00 60 1018.7
20260902193951 94 332 1.0 8.0 0.00 0.00 0.00 60 1018.5
20260902193446 94 298 2.0 2.0 0.00 0.00 0.00 59 1018.4
20260902192945 94 281 1.0 2.0 0.00 0.00 0.00 59 1018.3
20260902192443 94 299 0.0 2.0 0.00 0.00 0.00 59 1018.5
20260902191942 94 283 3.0 5.0 0.00 0.00 0.00 57 1018.6
20260902191438 94 286 2.0 2.0 0.00 0.00 0.00 58 1018.5
20260902190933 94 305 3.0 3.0 0.00 0.00 0.00 59 1018.5
20260902190428 93 262 2.0 3.0 0.00 0.00 0.00 60 1018.5
20260902185924 94 78 0.0 2.0 0.00 0.00 0.00 57 1018.6
20260902185420 94 296 3.0 4.0 0.00 0.00 0.00 59 1018.8
20260902184915 93 174 1.0 4.0 0.00 0.00 0.00 60 1018.8
20260902184410 93 308 3.0 4.0 0.00 0.00 0.00 60 1018.8
20260902183906 94 304 4.0 4.0 0.00 0.00 0.00 60 1019.2
20260902183402 95 156 0.0 3.0 0.00 0.00 0.00 59 1019.0
20260902182857 95 310 2.0 3.0 0.00 0.00 0.00 59 1018.8
20260902182353 95 298 2.0 3.0 0.00 0.00 0.00 58 1018.9
20260902181850 95 268 0.0 2.0 0.00 0.00 0.00 58 1019.1
20260902181340 95 280 3.0 4.0 0.00 0.00 0.00 59 1019.3
20260902180838 94 351 0.0 2.0 0.00 0.00 0.00 60 1019.1
20260902180335 94 151 3.0 4.0 0.00 0.00 0.00 59 1019.1
20260902175830 94 318 2.0 5.0 0.00 0.00 0.00 59 1019.3
20260902175325 94 219 2.0 5.0 0.00 0.00 0.00 59 1019.4
20260902174821 94 297 2.0 4.0 0.00 0.00 0.00 59 1019.3
20260902174318 95 278 0.0 3.0 0.00 0.00 0.00 59 1019.3
20260902173813 94 298 2.0 3.0 0.00 0.00 0.00 60 1019.4
20260902173313 94 302 2.0 5.0 0.00 0.00 0.00 58 1019.3
20260902172813 93 310 3.0 4.0 0.00 0.00 0.00 58 1019.2
20260902172308 93 294 2.0 4.0 0.00 0.00 0.00 59 1019.4
20260902171802 93 320 2.0 3.0 0.00 0.00 0.00 61 1019.3
20260902171256 93 301 4.0 5.0 0.00 0.00 0.00 61 1019.2
20260902170748 92 290 2.0 2.0 0.00 0.00 0.00 62 1019.2
20260902170243 92 337 0.0 4.0 0.00 0.00 0.00 60 1019.2
20260902165738 92 300 2.0 3.0 0.00 0.00 0.00 63 1019.2
20260902165238 92 296 2.0 4.0 0.00 0.00 0.00 62 1019.4
20260902164732 92 290 3.0 3.0 0.00 0.00 0.00 61 1019.3
20260902164226 92 242 1.0 2.0 0.00 0.00 0.00 61 1019.3
20260902163721 92 310 0.0 2.0 0.00 0.00 0.00 63 1019.5
20260902163215 91 295 2.0 3.0 0.00 0.00 0.00 64 1019.2
20260902162713 91 300 2.0 8.0 0.00 0.00 0.00 64 1019.4
20260902162203 91 37 0.0 2.0 0.00 0.00 0.00 65 1019.3
20260902161658 91 295 2.0 3.0 0.00 0.00 0.00 66 1019.3
20260902161153 91 269 0.0 2.0 0.00 0.00 0.00 64 1019.4
20260902160650 91 325 0.0 3.0 0.00 0.00 0.00 66 1019.4
20260902160144 91 295 2.0 3.0 0.00 0.00 0.00 67 1019.5
20260902155642 90 358 1.0 4.0 0.00 0.00 0.00 66 1019.5
20260902155136 90 298 2.0 2.0 0.00 0.00 0.00 67 1019.5
20260902154631 90 312 2.0 3.0 0.00 0.00 0.00 68 1019.5
20260902154125 90 320 1.0 2.0 0.00 0.00 0.00 69 1019.5
20260902153625 89 277 0.0 3.0 0.00 0.00 0.00 68 1019.5
20260902153120 89 91 2.0 2.0 0.00 0.00 0.00 67 1019.5
20260902152616 89 296 0.0 2.0 0.00 0.00 0.00 68 1019.6
20260902152111 89 327 1.0 2.0 0.00 0.00 0.00 69 1019.5
20260902151607 88 321 0.0 2.0 0.00 0.00 0.00 69 1019.7
20260902151106 88 348 1.0 3.0 0.00 0.00 0.00 69 1019.7
20260902150601 88 326 0.0 3.0 0.00 0.00 0.00 69 1019.7
20260902150057 88 169 1.0 2.0 0.00 0.00 0.00 71 1019.8
20260902145552 88 333 3.0 4.0 0.00 0.00 0.00 72 1019.9
20260902145051 88 42 1.0 2.0 0.00 0.00 0.00 70 1019.7
20260902144548 88 336 0.0 2.0 0.00 0.00 0.00 70 1019.8
20260902144043 87 315 2.0 3.0 0.00 0.00 0.00 71 1019.9
20260902143537 87 312 1.0 3.0 0.00 0.00 0.00 71 1020.0
20260902143033 87 333 2.0 3.0 0.00 0.00 0.00 72 1019.8
20260902142528 87 123 1.0 2.0 0.00 0.00 0.00 73 1019.9
20260902142024 86 272 2.0 2.0 0.00 0.00 0.00 74 1019.7
20260902141524 86 314 2.0 2.0 0.00 0.00 0.00 75 1019.6
20260902141020 86 302 1.0 2.0 0.00 0.00 0.00 75 1019.7
20260902140519 85 316 1.0 2.0 0.00 0.00 0.00 79 1019.5
20260902140015 85 307 2.0 2.0 0.00 0.00 0.00 78 1019.7
20260902135509 85 340 1.0 2.0 0.00 0.00 0.00 77 1019.6
20260902135004 84 294 1.0 2.0 0.00 0.00 0.00 78 1019.4
20260902134500 84 325 2.0 3.0 0.00 0.00 0.00 79 1019.5
20260902133959 84 22 0.0 3.0 0.00 0.00 0.00 79 1019.4
20260902133454 85 314 2.0 2.0 0.00 0.00 0.00 77 1019.5
20260902132949 84 354 0.0 2.0 0.00 0.00 0.00 78 1019.3
20260902132444 84 324 0.0 2.0 0.00 0.00 0.00 78 1019.5
20260902131939 84 310 0.0 2.0 0.00 0.00 0.00 78 1019.6
20260902131436 83 311 0.0 1.0 0.00 0.00 0.00 79 1019.5
20260902130935 84 296 2.0 2.0 0.00 0.00 0.00 79 1019.6
20260902130432 83 319 1.0 2.0 0.00 0.00 0.00 80 1019.5
20260902125931 82 294 1.0 2.0 0.00 0.00 0.00 82 1019.5
20260902125427 82 283 0.0 2.0 0.00 0.00 0.00 82 1019.4
20260902124923 81 310 2.0 2.0 0.00 0.00 0.00 82 1019.2
20260902124419 80 293 2.0 4.0 0.00 0.00 0.00 83 1019.4
20260902123915 79 0 1.0 2.0 0.00 0.00 0.00 86 1019.2
20260902123411 78 352 0.0 1.0 0.00 0.00 0.00 89 1019.2
20260902122909 77 319 0.0 1.0 0.00 0.00 0.00 91 1019.3
20260902122405 77 312 1.0 2.0 0.00 0.00 0.00 91 1019.2
20260902121900 77 299 0.0 1.0 0.00 0.00 0.00 92 1019.1
20260902121355 77 317 2.0 2.0 0.00 0.00 0.00 93 1019.2
20260902120850 77 326 0.0 1.0 0.00 0.00 0.00 92 1019.3
20260902120346 76 321 0.0 1.0 0.00 0.00 0.00 92 1019.1
20260902115845 76 320 0.0 2.0 0.00 0.00 0.00 93 1019.2
20260902115342 76 321 0.0 2.0 0.00 0.00 0.00 93 1019.0
20260902114838 76 312 0.0 1.0 0.00 0.00 0.00 93 1019.3
20260902114334 76 297 0.0 1.0 0.00 0.00 0.00 92 1019.0
20260902113829 77 310 1.0 1.0 0.00 0.00 0.00 93 1019.2
20260902113325 76 326 1.0 2.0 0.00 0.00 0.00 92 1019.3
20260902112823 76 308 1.0 1.0 0.00 0.00 0.00 93 1019.4
20260902112320 76 279 0.0 1.0 0.00 0.00 0.00 93 1019.2
20260902111815 76 352 0.0 2.0 0.00 0.00 0.00 92 1019.1
20260902111312 76 308 0.0 2.0 0.00 0.00 0.00 92 1019.1
20260902110807 76 333 0.0 1.0 0.00 0.00 0.00 92 1019.3
20260902110303 76 306 1.0 2.0 0.00 0.00 0.00 92 1019.2
20260902105803 76 313 0.0 1.0 0.00 0.00 0.00 92 1019.3
20260902105257 76 309 0.0 1.0 0.00 0.00 0.00 92 1019.1
20260902104753 76 319 0.0 2.0 0.00 0.00 0.00 92 1019.0
20260902104249 76 325 0.0 1.0 0.00 0.00 0.00 92 1019.0
20260902103748 76 319 0.0 2.0 0.00 0.00 0.00 92 1019.1
20260902103248 76 310 1.0 1.0 0.00 0.00 0.00 92 1019.0
20260902102743 76 293 0.0 1.0 0.00 0.00 0.00 92 1018.9
20260902102241 76 301 0.0 2.0 0.00 0.00 0.00 91 1018.9
20260902101736 77 313 1.0 2.0 0.00 0.00 0.00 92 1018.9
20260902101231 77 299 0.0 1.0 0.00 0.00 0.00 91 1018.8
20260902100730 77 311 0.0 1.0 0.00 0.00 0.00 91 1018.8
20260902100225 77 295 2.0 2.0 0.00 0.00 0.00 91 1018.5
20260902095720 77 284 1.0 1.0 0.00 0.00 0.00 91 1018.6
20260902095214 77 319 1.0 2.0 0.00 0.00 0.00 91 1018.6
20260902094709 78 307 1.0 2.0 0.00 0.00 0.00 90 1018.6
20260902094205 78 344 1.0 1.0 0.00 0.00 0.00 89 1018.5
20260902093704 78 325 1.0 2.0 0.00 0.00 0.00 89 1018.6